Weather History for Thermopolis, WY

Change the Weather History Date:

Wednesday, November 21, 2012

  Actual Average (KWRL) Record (KWRL)
Temperature  
Mean Temperature 40 °F 27 °F  
Max Temperature 46 °F 41 °F 66 °F (2006)
Min Temperature 33 °F 14 °F -17 °F (1977)
Degree Days  
Heating Degree Days 26 38  
Month to date heating degree days 666  
Since 1 July heating degree days 1528  
Cooling Degree Days 0 0  
Month to date cooling degree days 0  
Year to date cooling degree days 535  
Moisture  
Dew Point 26 °F    
Average Humidity 60    
Maximum Humidity 81    
Minimum Humidity 43    
Precipitation  
Precipitation 0.00 in 0.01 in 0.33 in (1962)
Month to date precipitation 0.26  
Year to date precipitation 7.25  
Sea Level Pressure  
Sea Level Pressure 29.99 in    
Wind  
Wind Speed 15 mph ()    
Max Wind Speed 30 mph    
Max Gust Speed 39 mph    
Visibility 10.0 miles    
Events      
T = Trace of Precipitation, MM = Missing Value Source: Averaged Metar Reports

Daily Weather History Graph

Daily Weather History Graph

Search for Another Location

Airport:

Trip Planner

Search our weather history database for the weather conditions in past years. The results will help you decide how hot, cold, wet, or windy it might be!

Date:

Astronomy

Nov. 21, 2012 Rise Set
Actual Time 7:14 AM MST 4:42 PM MST
Civil Twilight 6:43 AM MST 5:14 PM MST
Nautical Twilight 6:08 AM MST 5:49 PM MST
Astronomical Twilight 5:34 AM MST 6:23 PM MST
Moon 1:10 PM MST (11/21) 12:26 AM MST (11/21)
Length of Visible Light 10h 30m
Length of Day
9h 27m
Waxing Gibbous, 62% of the Moon is Illuminated
Nov 21
Waxing Gibbous
Nov 28
Full
Dec 6
Last Quarter
Dec 13
New
Dec 19
First Quarter

Hourly Weather History & Observations

Time (MST) Temp. Windchill Dew Point Humidity Pressure Visibility Wind Dir Wind Speed Gust Speed Precip Events Conditions
12:15 AM 37.4 °F 29.8 °F 28.4 °F 70% 30.12 in 10.0 mi ESE 11.5 mph - N/A   Clear
12:35 AM 37.4 °F 30.3 °F 28.4 °F 70% 30.11 in 10.0 mi ESE 10.4 mph - N/A   Clear
12:55 AM 37.4 °F 29.8 °F 28.4 °F 70% 30.10 in 10.0 mi ESE 11.5 mph - N/A   Clear
1:15 AM 37.4 °F 29.8 °F 26.6 °F 65% 30.11 in 10.0 mi ESE 11.5 mph - N/A   Clear
1:35 AM 39.2 °F 32.5 °F 26.6 °F 61% 30.10 in 10.0 mi ESE 10.4 mph - N/A   Clear
1:55 AM 37.4 °F 29.3 °F 26.6 °F 65% 30.10 in 10.0 mi SE 12.7 mph - N/A   Clear
2:15 AM 37.4 °F 29.8 °F 26.6 °F 65% 30.09 in 10.0 mi East 11.5 mph - N/A   Clear
2:35 AM 37.4 °F 27.8 °F 26.6 °F 65% 30.08 in 10.0 mi ESE 17.3 mph - N/A   Clear
3:15 AM 35.6 °F 26.2 °F 26.6 °F 70% 30.07 in 10.0 mi ESE 15.0 mph - N/A   Clear
3:35 AM 37.4 °F 28.2 °F 26.6 °F 65% 30.06 in 10.0 mi ESE 16.1 mph - N/A   Clear
4:15 AM 37.4 °F 30.8 °F 26.6 °F 65% 30.06 in 10.0 mi ESE 9.2 mph - N/A   Clear
4:35 AM 37.4 °F 29.8 °F 26.6 °F 65% 30.05 in 10.0 mi ESE 11.5 mph - N/A   Clear
4:55 AM 35.6 °F 26.2 °F 26.6 °F 70% 30.04 in 10.0 mi ESE 15.0 mph - N/A   Clear
5:15 AM 35.6 °F 26.2 °F 26.6 °F 70% 30.04 in 10.0 mi ESE 15.0 mph - N/A   Clear
5:35 AM 35.6 °F 26.2 °F 26.6 °F 70% 30.04 in 10.0 mi ESE 15.0 mph - N/A   Clear
5:55 AM 35.6 °F 28.0 °F 26.6 °F 70% 30.04 in 10.0 mi ESE 10.4 mph - N/A   Clear
6:15 AM 35.6 °F 28.0 °F 26.6 °F 70% 30.02 in 10.0 mi SE 10.4 mph - N/A   Clear
6:35 AM 35.6 °F 26.2 °F 26.6 °F 70% 30.01 in 10.0 mi ESE 15.0 mph - N/A   Clear
6:55 AM 35.6 °F 27.1 °F 26.6 °F 70% 30.02 in 10.0 mi ESE 12.7 mph - N/A   Clear
7:15 AM 33.8 °F 23.5 °F 26.6 °F 75% 30.00 in 10.0 mi SE 16.1 mph - N/A   Clear
7:35 AM 33.8 °F 22.2 °F 26.6 °F 75% 29.99 in 10.0 mi SE 20.7 mph - N/A   Clear
7:55 AM 33.8 °F 22.2 °F 26.6 °F 75% 29.99 in 10.0 mi SE 20.7 mph - N/A   Clear
8:15 AM 33.8 °F 22.2 °F 28.4 °F 81% 29.98 in 10.0 mi SE 20.7 mph 28.8 mph N/A   Clear
8:35 AM 33.8 °F 21.6 °F 26.6 °F 75% 29.98 in 10.0 mi SE 23.0 mph - N/A   Clear
8:55 AM 35.6 °F 25.2 °F 28.4 °F 75% 29.98 in 10.0 mi SE 18.4 mph 27.6 mph N/A   Clear
9:35 AM 35.6 °F 25.2 °F 26.6 °F 70% 29.98 in 10.0 mi ESE 18.4 mph - N/A   Clear
10:15 AM 39.2 °F 29.6 °F 26.6 °F 61% 29.97 in 10.0 mi ESE 19.6 mph - N/A   Clear
10:35 AM 41.0 °F 32.5 °F 24.8 °F 53% 29.98 in 10.0 mi SE 17.3 mph 20.7 mph N/A   Clear
10:55 AM 41.0 °F 33.1 °F 26.6 °F 57% 29.98 in 10.0 mi SE 15.0 mph - N/A   Clear
11:15 AM 42.8 °F 35.4 °F 26.6 °F 53% 29.98 in 10.0 mi SE 15.0 mph - N/A   Clear
11:35 AM 42.8 °F 35.1 °F 26.6 °F 53% 29.96 in 10.0 mi SE 16.1 mph - N/A   Clear
11:55 AM 41.0 °F 32.5 °F 26.6 °F 57% 29.96 in 10.0 mi SE 17.3 mph - N/A   Clear
12:15 PM 41.0 °F 33.9 °F 26.6 °F 57% 29.96 in 10.0 mi ESE 12.7 mph - N/A   Clear
12:35 PM 42.8 °F 35.1 °F 26.6 °F 53% 29.95 in 10.0 mi SE 16.1 mph - N/A   Clear
12:55 PM 44.6 °F 38.4 °F 26.6 °F 49% 29.94 in 10.0 mi SE 12.7 mph - N/A   Clear
1:15 PM 44.6 °F 38.8 °F 26.6 °F 49% 29.94 in 10.0 mi SSE 11.5 mph 25.3 mph N/A   Clear
1:35 PM 44.6 °F 37.8 °F 24.8 °F 46% 29.93 in 10.0 mi SSE 15.0 mph 23.0 mph N/A   Clear
1:55 PM 44.6 °F 37.2 °F 24.8 °F 46% 29.93 in 10.0 mi SSE 17.3 mph 26.5 mph N/A   Clear
2:15 PM 46.4 °F 39.2 °F 26.6 °F 46% 29.93 in 10.0 mi SSE 18.4 mph 27.6 mph N/A   Clear
2:35 PM 46.4 °F 39.2 °F 26.6 °F 46% 29.93 in 10.0 mi SSE 18.4 mph 26.5 mph N/A   Clear
2:55 PM 46.4 °F 39.2 °F 26.6 °F 46% 29.93 in 10.0 mi SSE 18.4 mph 31.1 mph N/A   Clear
3:15 PM 44.6 °F 36.6 °F 23.0 °F 43% 29.93 in 10.0 mi South 19.6 mph 39.1 mph N/A   Clear
3:35 PM 44.6 °F 37.8 °F 23.0 °F 43% 29.93 in 10.0 mi SSE 15.0 mph 21.9 mph N/A   Clear
3:55 PM 44.6 °F 37.4 °F 23.0 °F 43% 29.92 in 10.0 mi South 16.1 mph 31.1 mph N/A   Clear
4:35 PM 44.6 °F 36.6 °F 23.0 °F 43% 29.93 in 10.0 mi South 19.6 mph 24.2 mph N/A   Clear
4:55 PM 44.6 °F 37.4 °F 23.0 °F 43% 29.94 in 10.0 mi South 16.1 mph 21.9 mph N/A   Clear
5:15 PM 42.8 °F 33.3 °F 23.0 °F 46% 29.93 in 10.0 mi South 24.2 mph 28.8 mph N/A   Clear
5:35 PM 44.6 °F 34.7 °F 23.0 °F 43% 29.92 in 10.0 mi SSW 29.9 mph 39.1 mph N/A   Clear
5:55 PM 42.8 °F 32.9 °F 23.0 °F 46% 29.93 in 10.0 mi SSW 26.5 mph 35.7 mph N/A   Clear
6:15 PM 42.8 °F 32.7 °F 24.8 °F 49% 29.93 in 10.0 mi SSW 27.6 mph 32.2 mph N/A   Clear
6:35 PM 42.8 °F 33.8 °F 24.8 °F 49% 29.95 in 10.0 mi SSW 21.9 mph 28.8 mph N/A   Clear
6:55 PM 41.0 °F 31.4 °F 24.8 °F 53% 29.95 in 10.0 mi SSW 21.9 mph 29.9 mph N/A   Clear
7:15 PM 41.0 °F 32.5 °F 23.0 °F 49% 29.94 in 10.0 mi South 17.3 mph 27.6 mph N/A   Clear
7:35 PM 41.0 °F 32.2 °F 24.8 °F 53% 29.95 in 10.0 mi South 18.4 mph 27.6 mph N/A   Clear
7:55 PM 41.0 °F 35.8 °F 24.8 °F 53% 29.97 in 10.0 mi SW 8.1 mph 18.4 mph N/A   Clear
8:15 PM 37.4 °F 28.9 °F 26.6 °F 65% 29.96 in 10.0 mi WSW 13.8 mph - N/A   Clear
8:35 PM 39.2 °F 31.6 °F 24.8 °F 56% 29.96 in 10.0 mi WSW 12.7 mph 18.4 mph N/A   Clear
8:55 PM 37.4 °F 28.2 °F 26.6 °F 65% 29.96 in 10.0 mi West 16.1 mph - N/A   Clear
9:15 PM 37.4 °F 25.9 °F 28.4 °F 70% 29.98 in 10.0 mi WSW 25.3 mph 28.8 mph N/A   Scattered Clouds
9:35 PM 37.4 °F 26.1 °F 28.4 °F 70% 29.98 in 10.0 mi WSW 24.2 mph 27.6 mph N/A   Scattered Clouds
9:55 PM 37.4 °F 26.4 °F 26.6 °F 65% 29.98 in 10.0 mi WSW 23.0 mph 31.1 mph N/A   Mostly Cloudy
10:15 PM 37.4 °F 25.4 °F 26.6 °F 65% 29.98 in 10.0 mi WSW 27.6 mph 31.1 mph N/A   Mostly Cloudy
10:35 PM 35.6 °F 23.0 °F 26.6 °F 70% 29.97 in 10.0 mi WSW 27.6 mph - N/A   Overcast
11:15 PM 37.4 °F 27.2 °F 24.8 °F 60% 29.97 in 10.0 mi SW 19.6 mph 26.5 mph N/A   Scattered Clouds
11:35 PM 35.6 °F 25.5 °F 24.8 °F 65% 29.97 in 10.0 mi SW 17.3 mph - N/A   Clear
11:55 PM 35.6 °F 22.5 °F 26.6 °F 70% 29.99 in 10.0 mi WSW 29.9 mph 34.5 mph N/A   Clear